This is the latest recevied weather packets stored in our database for station/object KD7CIH. If no packets are shown the sender has not sent any weather packets the latest 10 day(s).
| Time | Temp. | Humidity | Pressure | Rain* | Wind** | Luminosity | Snow |
|---|---|---|---|---|---|---|---|
| 1788551555 | 26.67° C | 19% | 1011.8 hPa | 0 mm | - | - | - |
| 1788551253 | 26.11° C | 20% | 1011.8 hPa | 0 mm | - | - | - |
| 1788550953 | 26.11° C | 21% | 1011.7 hPa | 0 mm | - | - | - |
| 1788550655 | 25.56° C | 21% | 1011.8 hPa | 0 mm | - | - | - |
| 1788550353 | 25.56° C | 21% | 1011.8 hPa | 0 mm | - | - | - |
| 1788550053 | 25.56° C | 20% | 1011.7 hPa | 0 mm | - | - | - |
| 1788549883 | 25.56° C | 21% | 1011.8 hPa | 0 mm | - | - | - |
| 1788549580 | 26.11° C | 21% | 1011.8 hPa | 0 mm | - | - | - |
| 1788549153 | 26.11° C | 21% | 1011.8 hPa | 0 mm | - | - | - |
| 1788548857 | 25.56° C | 19% | 1011.8 hPa | 0 mm | - | - | - |
| 1788548553 | 25.56° C | 20% | 1011.9 hPa | 0 mm | - | - | - |
| 1788548253 | 25.56° C | 19% | 1012 hPa | 0 mm | - | - | - |
| 1788547953 | 25.56° C | 19% | 1012.3 hPa | 0 mm | - | - | - |
| 1788547655 | 25.56° C | 19% | 1012 hPa | 0 mm | - | - | - |
| 1788547354 | 25.56° C | 19% | 1012.3 hPa | 0 mm | - | - | - |
| 1788547053 | 25.56° C | 20% | 1012.3 hPa | 0 mm | - | - | - |
| 1788546754 | 25° C | 19% | 1012.3 hPa | 0 mm | - | - | - |
| 1788546453 | 25° C | 18% | 1012.4 hPa | 0 mm | - | - | - |
| 1788546280 | 25° C | 19% | 1012.4 hPa | 0 mm | - | - | - |
| 1788545853 | 24.44° C | 20% | 1012.5 hPa | 0 mm | - | - | - |
| 1788545557 | 24.44° C | 20% | 1012.8 hPa | 0 mm | - | - | - |
| 1788545255 | 25° C | 20% | 1012.7 hPa | 0 mm | - | - | - |
| 1788544954 | 24.44° C | 20% | 1012.8 hPa | 0 mm | - | - | - |
| 1788544654 | 24.44° C | 20% | 1012.8 hPa | 0 mm | - | - | - |
| 1788544355 | 24.44° C | 20% | 1012.8 hPa | 0 mm | - | - | - |
* Rain latest hour (hover to see other rain measurements)
** Current wind speed in m/s (hover to see current wind gust speed)